Stations météo

réclame
Mon MeteoGroup
Boulogne, France (7002): Température de l'air & dewpoint: 17.09.2017 21:00:00 - 23.09.2017 21:00:00 (CEST)Boulogne, France (7002): Vitesse du vent & gusts: 17.09.2017 21:00:00 - 23.09.2017 21:00:00 (CEST)Boulogne, France (7002): Direction du vent: 17.09.2017 21:00:00 - 23.09.2017 21:00:00 (CEST)Boulogne, France (7002): reduced air pressure: 17.09.2017 21:00:00 - 23.09.2017 21:00:00 (CEST)Boulogne, France (7002): visibility: 17.09.2017 21:00:00 - 23.09.2017 21:00:00 (CEST)Boulogne, France (7002): Quantités de précipitations: 17.09.2017 21:00:00 - 23.09.2017 21:00:00 (CEST)
Date & Time tt [°C] td [°C] ff [km/h] ff [knt] fx [km/h] fx [knt] dd ppp [hPa] vv [km] rr [mm]
23.09.2017 21:00:00 14,8 11,2 7 4 9 5 ESE 1021,7 - 0,0
23.09.2017 20:00:00 15,3 12,2 4 2 9 5 E 1021,4 10 0,0
23.09.2017 19:00:00 15,5 12,4 7 4 22 12 NNW 1021,4 - 0,0
23.09.2017 18:00:00 15,5 11,9 12 6 20 11 NNW 1021,7 - 0,0
23.09.2017 17:00:00 16,2 10,5 11 6 21 11 NNW 1021,8 - 0,0
23.09.2017 16:00:00 16,6 11,3 4 2 14 8 NW 1022,3 - 0,0
23.09.2017 15:00:00 15,7 10,7 8 5 16 9 W 1023,0 - 0,0
23.09.2017 14:00:00 16,0 11,0 8 4 16 9 W 1023,3 - 0,0
23.09.2017 13:00:00 17,0 10,4 7 4 17 9 SSE 1023,7 - 0,0
23.09.2017 12:00:00 15,6 10,4 11 6 18 10 SE 1024,1 - 0,0
23.09.2017 11:00:00 14,5 9,5 10 5 16 8 SSE 1024,3 20 0,0
23.09.2017 10:00:00 12,8 9,1 8 4 14 8 SE 1024,0 - 0,0
23.09.2017 09:00:00 11,4 8,3 10 6 18 10 SE 1023,9 - 0,0
23.09.2017 08:00:00 11,0 7,7 11 6 21 11 ESE 1023,6 20 0,0
23.09.2017 07:00:00 9,8 7,6 14 7 19 10 SE 1023,6 - 0,0
23.09.2017 06:00:00 10,1 8,0 14 8 18 10 SE 1023,5 - 0,0
23.09.2017 05:00:00 10,1 8,0 14 7 18 10 ESE 1023,5 10 0,0
23.09.2017 04:00:00 11,0 8,6 10 5 15 8 SE 1023,8 - 0,0
23.09.2017 03:00:00 11,2 8,4 9 5 15 8 SE 1024,0 - 0,0
23.09.2017 02:00:00 11,1 8,3 9 5 16 8 SE 1024,2 10 0,0
23.09.2017 01:00:00 11,5 8,5 8 5 13 7 SE 1024,0 - 0,0
23.09.2017 00:00:00 11,5 8,4 7 4 11 6 SSE 1024,0 - 0,0
22.09.2017 23:00:00 12,4 8,7 6 3 16 9 SSE 1024,0 10 0,0
22.09.2017 22:00:00 13,8 9,0 8 5 22 12 SW 1023,7 - 0,0
22.09.2017 21:00:00 14,1 8,7 13 7 23 12 WSW 1023,5 - 0,0
22.09.2017 20:00:00 14,1 8,1 11 6 24 13 WSW 1023,2 20 0,0
22.09.2017 19:00:00 15,2 7,5 14 8 25 14 WSW 1022,8 - 0,0
22.09.2017 18:00:00 15,5 9,2 16 9 26 14 WSW 1022,7 - 0,0
22.09.2017 17:00:00 15,7 10,0 17 9 26 14 W 1022,6 25 0,0
22.09.2017 16:00:00 15,5 10,9 14 8 22 12 W 1022,4 - 0,0
22.09.2017 15:00:00 15,2 12,1 12 6 19 10 W 1022,3 - 0,0
22.09.2017 14:00:00 15,4 12,0 12 7 19 10 WNW 1022,3 15 0,0
22.09.2017 13:00:00 15,5 12,1 11 6 21 12 NW 1022,1 - 0,0
22.09.2017 12:00:00 15,1 12,0 15 8 23 12 NNW 1021,9 - 0,0
22.09.2017 11:00:00 14,6 12,3 6 3 17 9 N 1021,6 15 0,0
22.09.2017 10:00:00 14,8 11,9 9 5 18 10 NNE 1021,2 - 0,0
22.09.2017 09:00:00 13,8 12,4 6 4 13 7 NNW 1020,8 - 0,0
22.09.2017 08:00:00 13,4 12,0 4 2 11 6 NE 1020,4 10 0,0
22.09.2017 07:00:00 13,9 12,1 9 5 14 8 NNE 1019,9 - 0,0
22.09.2017 06:00:00 14,2 12,4 7 4 17 9 NW 1019,7 - 0,0
22.09.2017 05:00:00 14,2 12,2 8 4 14 7 NW 1019,6 13 0,0
22.09.2017 04:00:00 14,5 12,5 8 5 20 11 NW 1019,4 - 0,0
22.09.2017 03:00:00 15,0 12,3 11 6 26 14 NW 1019,3 - 0,0
22.09.2017 02:00:00 15,5 12,4 12 6 26 14 WNW 1019,3 - 0,0
22.09.2017 01:00:00 15,7 13,7 17 9 25 14 WSW 1018,8 - 0,0
22.09.2017 00:00:00 15,6 13,1 10 6 27 15 W 1018,5 - 0,0
21.09.2017 23:00:00 15,8 12,5 16 9 27 15 W 1018,6 13 0,0
21.09.2017 22:00:00 16,2 13,9 14 7 25 13 WSW 1018,5 - 0,0
21.09.2017 21:00:00 16,4 10,3 11 6 18 10 S 1018,0 - 0,0
21.09.2017 20:00:00 16,5 10,1 12 6 26 14 S 1017,4 - 0,0
21.09.2017 19:00:00 17,5 9,4 14 7 29 16 SSW 1017,2 - 0,0
21.09.2017 18:00:00 18,2 8,7 20 11 35 19 SSW 1016,9 - 0,0
21.09.2017 17:00:00 18,8 10,1 20 11 36 20 S 1016,7 15 0,0
21.09.2017 16:00:00 18,3 9,6 23 12 40 22 SSW 1016,8 - 0,0
21.09.2017 15:00:00 18,5 9,0 23 12 40 22 SSW 1016,8 - 0,0
21.09.2017 14:00:00 18,5 8,5 24 13 50 27 S 1017,1 - 0,0
21.09.2017 13:00:00 17,7 8,5 28 15 50 27 S 1017,4 - 0,0
21.09.2017 12:00:00 16,8 8,7 24 13 45 25 S 1017,5 - 0,0
21.09.2017 11:00:00 15,6 8,8 21 12 40 22 S 1017,7 15 0,0
21.09.2017 10:00:00 14,4 8,8 17 9 34 18 SSE 1017,7 - 0,0
21.09.2017 09:00:00 12,2 8,1 23 12 - - SSE 1017,6 - 0,0
21.09.2017 08:00:00 11,8 8,1 21 11 34 18 SSE 1017,5 15 0,0
21.09.2017 07:00:00 11,8 8,5 20 11 31 17 SSE 1017,5 - 0,0
21.09.2017 06:00:00 11,3 8,7 20 11 31 17 SSE 1017,6 - 0,0
21.09.2017 05:00:00 11,1 8,8 16 9 26 14 SE 1018,0 - 0,0
21.09.2017 04:00:00 11,5 9,4 16 9 26 14 SE 1018,4 - 0,0
21.09.2017 03:00:00 11,8 9,7 14 7 26 14 SE 1018,5 - 0,0
21.09.2017 02:00:00 12,0 9,6 13 7 22 12 SE 1018,8 - 0,0
21.09.2017 01:00:00 12,2 9,8 13 7 21 12 SE 1018,9 - 0,0
21.09.2017 00:00:00 12,5 10,6 11 6 18 10 SE 1018,9 - 0,0
20.09.2017 23:00:00 12,9 10,8 10 5 16 9 SE 1018,9 15 0,0
20.09.2017 22:00:00 13,5 11,0 9 5 16 9 SE 1019,1 - 0,0
20.09.2017 21:00:00 14,7 10,9 9 5 20 11 S 1019,3 - 0,0
20.09.2017 20:00:00 15,1 11,1 11 6 26 14 SSW 1019,2 15 0,0
20.09.2017 19:00:00 15,6 11,0 17 9 33 18 SW 1019,4 - 0,0
20.09.2017 18:00:00 15,8 10,8 19 10 34 18 SW 1019,7 - 0,0
20.09.2017 17:00:00 15,6 11,2 22 12 41 22 SW 1020,2 15 0,0
20.09.2017 16:00:00 14,9 11,9 31 17 45 24 SW 1020,3 - 0,0
20.09.2017 15:00:00 16,0 12,0 27 15 40 22 WSW 1020,4 - 0,0
20.09.2017 14:00:00 15,5 12,1 15 8 40 21 S 1020,6 20 0,0
20.09.2017 13:00:00 15,4 11,8 24 13 40 22 SW 1020,8 - 0,0
20.09.2017 12:00:00 15,6 10,6 17 9 27 15 SW 1021,1 - 0,0
20.09.2017 11:00:00 15,9 10,2 16 9 26 14 WSW 1021,1 20 0,0
20.09.2017 10:00:00 15,3 10,5 14 8 26 14 WSW 1021,0 - 0,0
20.09.2017 09:00:00 14,0 9,8 9 5 21 12 SW 1021,1 - 0,0
20.09.2017 08:00:00 11,8 9,5 8 4 13 7 SE 1021,1 18 0,0
20.09.2017 07:00:00 13,3 10,7 5 3 18 10 WSW 1021,0 - 0,0
20.09.2017 06:00:00 13,7 10,7 9 5 21 11 WNW 1021,0 - 0,0
20.09.2017 05:00:00 14,4 9,8 18 10 26 14 W 1021,3 18 0,0
20.09.2017 04:00:00 14,4 10,6 13 7 29 16 WNW 1021,4 - 0,0
20.09.2017 03:00:00 14,5 9,9 23 12 35 19 W 1021,7 - 0,0
20.09.2017 02:00:00 14,1 9,7 11 6 23 13 WSW 1022,0 - 0,0
20.09.2017 01:00:00 14,1 8,7 16 9 29 16 W 1022,4 - 0,0
20.09.2017 00:00:00 13,8 7,3 19 10 27 14 W 1022,3 - 0,0
19.09.2017 23:00:00 13,8 8,4 17 9 28 15 W 1022,5 18 0,0
19.09.2017 22:00:00 13,7 8,5 17 9 32 17 W 1022,5 - 0,0
19.09.2017 21:00:00 13,8 8,8 17 9 30 16 W 1022,4 - 0,0
19.09.2017 20:00:00 13,6 8,8 14 8 23 12 W 1022,2 - 0,0
19.09.2017 19:00:00 14,4 7,4 11 6 21 11 W 1022,0 - 0,0
19.09.2017 18:00:00 14,8 8,3 14 8 26 14 W 1022,1 - 0,0
19.09.2017 17:00:00 14,6 9,2 18 10 28 15 W 1022,2 18 0,0
19.09.2017 16:00:00 14,7 9,3 13 7 21 11 WNW 1021,9 - 0,0
19.09.2017 15:00:00 14,5 9,9 10 5 23 12 WNW 1021,7 - 0,0
19.09.2017 14:00:00 13,8 10,0 14 7 24 13 WNW 1021,9 - 0,0
19.09.2017 13:00:00 13,8 9,8 14 7 26 14 NW 1021,6 - 0,0
19.09.2017 12:00:00 13,6 10,0 15 8 27 14 NNW 1021,0 - 0,0
19.09.2017 11:00:00 12,8 9,2 14 8 36 20 N 1021,0 - 0,0
19.09.2017 10:00:00 12,0 8,7 20 11 37 20 NNW 1020,3 - 0,0
19.09.2017 09:00:00 11,7 8,7 18 10 34 19 NNW 1019,8 - 0,0
19.09.2017 08:00:00 11,3 8,5 16 8 36 19 N 1019,4 18 0,0
19.09.2017 07:00:00 11,4 8,6 15 8 42 23 N 1019,0 - 0,0
19.09.2017 06:00:00 11,8 8,3 22 12 39 21 N 1018,6 - 0,0
19.09.2017 05:00:00 12,1 8,6 23 12 39 21 N 1018,3 20 0,0
19.09.2017 04:00:00 12,5 8,6 21 11 34 19 N 1018,3 - 0,0
19.09.2017 03:00:00 12,8 8,7 16 9 29 16 NNW 1018,5 - 0,0
19.09.2017 02:00:00 13,0 9,1 17 9 27 15 N 1018,4 - 0,0
19.09.2017 01:00:00 13,1 9,7 15 8 28 15 NNW 1018,2 - 0,0
19.09.2017 00:00:00 13,2 9,6 16 8 27 14 NNW 1018,5 - 0,0
18.09.2017 23:00:00 13,4 9,1 15 8 29 16 NNW 1018,4 12 0,0
18.09.2017 22:00:00 13,6 9,0 18 10 30 16 NNW 1018,3 - 0,0
18.09.2017 21:00:00 13,8 8,4 19 11 38 20 NNW 1018,0 - 0,0
18.09.2017 20:00:00 13,9 8,1 22 12 46 25 NNW 1017,5 18 0,0
18.09.2017 19:00:00 14,2 9,8 22 12 49 26 NW 1016,9 - 0,0
18.09.2017 18:00:00 13,4 8,9 10 5 43 23 N 1017,1 - 0,2
18.09.2017 17:00:00 15,0 9,8 13 7 24 13 NW 1016,8 18 0,0
18.09.2017 16:00:00 15,8 10,8 12 7 28 15 WNW 1016,6 - 0,0
18.09.2017 15:00:00 14,9 9,9 16 9 34 18 NW 1016,6 - 0,0
18.09.2017 14:00:00 14,4 10,0 17 9 33 18 NW 1016,5 12 0,0
18.09.2017 13:00:00 14,0 9,6 20 11 35 19 NNW 1016,3 - 0,0
18.09.2017 12:00:00 13,7 10,3 20 11 34 18 NNW 1016,1 - 0,0
18.09.2017 11:00:00 13,2 10,0 20 11 35 19 NNW 1016,0 12 0,0
18.09.2017 10:00:00 12,6 10,5 16 9 29 16 NW 1015,7 - 0,0
18.09.2017 09:00:00 11,8 9,9 16 9 27 15 NNW 1015,6 - 0,0
18.09.2017 08:00:00 12,2 10,3 14 8 23 12 NW 1015,3 - 0,0
18.09.2017 07:00:00 12,5 10,4 13 7 23 13 NNW 1015,0 - 0,0
18.09.2017 06:00:00 12,3 10,2 11 6 18 10 NNW 1014,9 - 0,0
18.09.2017 05:00:00 12,8 10,7 13 7 22 12 NNW 1014,8 - 0,0
18.09.2017 04:00:00 12,8 10,5 7 4 22 12 N 1014,7 - 0,0
18.09.2017 03:00:00 13,3 10,8 12 7 22 12 NNW 1014,7 - 0,0
18.09.2017 02:00:00 13,4 11,1 13 7 23 12 NNW 1014,8 12 0,0
18.09.2017 01:00:00 13,6 10,6 13 7 26 14 NW 1014,7 - 0,0
18.09.2017 00:00:00 13,7 9,3 14 8 27 14 NW 1014,7 - 0,0
17.09.2017 23:00:00 12,7 8,8 3 2 14 8 SSE 1014,9 12 0,0
17.09.2017 22:00:00 13,6 8,8 9 5 29 16 W 1014,8 - 0,0
17.09.2017 21:00:00 13,2 10,0 4 2 13 7 NW 1014,4 - 0,0

tt = Température de l'air
td = dewpoint
ff = Vitesse du vent
fx = gusts
dd = Direction du vent
ppp = reduced air pressure
vv = visibility
rr = Quantités de précipitations

stations d'obs. à proximité